Station 45168 - South Haven Buoy, MI Image indicating link to RSS feed of recent meteorological observations for station 45168


Conditions at 45168 as of
(1:30 am EDT)
0530 GMT on 05/30/2024:
     

Click on the graph icon in the table below to see a time series plot of the last five days of that observation.

5-day plot - Wind Direction Wind Direction (WDIR): NE ( 40 deg true )
5-day plot - Wind Speed Wind Speed (WSPD): 11.7 kts
5-day plot - Wind Gust Wind Gust (GST): 13.6 kts
5-day plot - Wave Height Wave Height (WVHT): 3.3 ft
5-day plot - Dominant Wave Period Dominant Wave Period (DPD): 5 sec
5-day plot - Mean Wave Direction Mean Wave Direction (MWD): N ( 350 deg true )
5-day plot - Atmospheric Pressure Atmospheric Pressure (PRES):30.19 in
5-day plot - Air Temperature Air Temperature (ATMP): 59.0 °F
5-day plot - Water Temperature Water Temperature (WTMP): 59.0 °F
5-day plot - Dew Point Dew Point (DEWP): 42.8 °F
5-day plot - Wind Speed at 10 Meters Wind Speed at 10 meters (WSPD10M): 11.7 kts
5-day plot - Wind Speed at 20 Meters Wind Speed at 20 meters (WSPD20M): 13.6 kts
5-day plot -  Wind Speed, Wind Gust and Atmospheric Pressure Combined plot of Wind Speed, Gust, and Air Pressure
Previous observations
TIME
(EDT)
5-day plot - Wind Direction
WDIR
 
5-day plot - Wind Speed
WSPD
kts
5-day plot - Wind Gust
GST
kts
5-day plot - Wave Height
WVHT
ft
5-day plot - Dominant Wave Period
DPD
sec
5-day plot - Average Wave Period
APD
sec
5-day plot - Mean Wave Direction
MWD
 
5-day plot - Atmospheric Pressure
PRES
in
5-day plot - Pressure Tendency
PTDY
in
5-day plot - Air Temperature
ATMP
°F
5-day plot - Water Temperature
WTMP
°F
5-day plot - Dew Point
DEWP
°F
5-day plot - Salinity
SAL
psu
5-day plot - Visibility
VIS
nmi
5-day plot - Tide (above MLLW)
TIDE
ft
2024-05-30 01:20 am NE 11.7 13.6 2.6 5- N30.19- 59.4 59.2 44.1---
2024-05-30 01:10 amNNE 11.7 15.5 2.6 5- N30.19- 59.4 59.4 45.1---
2024-05-30 01:00 amNNE 11.7 13.6 3.3 5- N30.19+0.03 59.4 59.4 48.0---
2024-05-30 12:50 amNNE 11.7 15.5 3.0 5- N30.19- 59.5 59.5 50.0---
2024-05-30 12:40 amNNE 11.7 15.5 3.0 6- N30.19- 59.5 59.5 49.8---
2024-05-30 12:30 amNNE 11.7 13.6 3.3 6- N30.18- 59.7 59.7 50.5---
2024-05-30 12:20 amNNE 11.7 15.5 3.3 5- N30.18- 59.7 59.9 50.7---
2024-05-30 12:10 amNNE 11.7 15.5 3.3 6- N30.18- 59.9 59.9 50.4---
2024-05-30 12:00 amNNE 11.7 15.5 3.3 5- N30.18+0.02 59.9 60.1 50.5---
2024-05-29 11:50 pmNNE 11.7 13.6 3.3 5- N30.18- 59.7 60.3 50.7---
2024-05-29 11:40 pmNNE 9.7 13.6 3.3 6- N30.18- 59.7 60.3 51.1---
2024-05-29 11:30 pmNNE 9.7 13.6 3.3 5- N30.17- 59.4 60.4 50.9---
2024-05-29 11:20 pm N 9.7 13.6 3.6 5- N30.17- 58.6 60.4 51.3---
2024-05-29 11:10 pm N 9.7 13.6 3.0 5- N30.17- 58.1 60.4 50.7---
2024-05-29 11:00 pm N 9.7 11.7 3.3 5- N30.17+0.01 57.9 60.4 50.5---
2024-05-29 10:50 pm N 9.7 11.7 3.9 5-NNW30.17- 57.7 60.6 50.2---
2024-05-29 10:40 pm N 7.8 11.7 3.9 6- N30.17- 57.4 60.6 50.2---
2024-05-29 10:30 pm N 7.8 11.7 3.6 6- N30.17- 57.0 60.6 50.0---
2024-05-29 10:20 pm N 9.7 11.7 3.6 6- N30.17- 56.8 60.8 49.5---
2024-05-29 10:10 pm N 7.8 11.7 3.9 5- N30.16- 56.5 60.8 48.9---
2024-05-29 10:00 pm N 9.7 11.7 4.3 6- N30.16+0.00 56.3 60.8 48.6---
2024-05-29 09:50 pm N 9.7 13.6 4.3 6- N30.16- 56.3 61.0 48.0---
2024-05-29 09:40 pm N 9.7 13.6 3.9 6- N30.16- 56.1 61.0 48.0---
2024-05-29 09:30 pm N 9.7 13.6 4.6 6- N30.16- 55.9 61.0 47.5---
2024-05-29 09:20 pm N 9.7 13.6 4.3 6-NNW30.16- 55.9 61.2 47.5---
2024-05-29 09:10 pm N 11.7 15.5 4.3 5-NNW30.16- 55.8 61.3 46.9---
2024-05-29 09:00 pm N 11.7 15.5 4.6 6- N30.16+0.01 55.8 61.5 46.9---
2024-05-29 08:50 pm N 13.6 17.5 4.3 6-NNW30.16- 55.9 61.5 46.6---
2024-05-29 08:40 pm N 13.6 17.5 5.2 6-NNW30.16- 56.1 61.5 47.1---
2024-05-29 08:30 pm N 13.6 17.5 4.6 6-NNW30.16- 55.9 61.7 46.6---
2024-05-29 08:20 pm N 13.6 17.5 4.9 5-NNW30.16- 56.1 61.5 46.6---
2024-05-29 08:10 pm N 13.6 19.4 4.9 6- N30.16- 56.1 61.7 46.6---
2024-05-29 08:00 pm N 15.5 19.4 4.9 6- N30.16+0.00 56.3 61.7 46.6---
2024-05-29 07:50 pm N 13.6 19.4 5.2 6- N30.16- 56.8 61.9 46.6---
2024-05-29 07:40 pm N 13.6 17.5 4.9 6-NNW30.16- 56.8 61.9 46.8---
2024-05-29 07:30 pm N 13.6 19.4 4.9 6- N30.16- 56.8 62.1 46.9---
2024-05-29 07:20 pm N 15.5 19.4 5.6 6- N30.16- 57.0 62.1 46.6---
2024-05-29 07:10 pm N 15.5 21.4 5.2 6- N30.16- 57.0 62.1 45.9---
2024-05-29 07:00 pm N 15.5 21.4 5.9 5-NNW30.16-0.01 57.4 62.1 45.3---
2024-05-29 06:50 pmNNE 15.5 21.4 5.2 5- N30.16- 57.4 62.1 44.4---
2024-05-29 06:40 pm N 17.5 23.3 4.9 5- N30.15- 57.4 61.9 43.9---
2024-05-29 06:30 pm N 19.4 23.3 5.2 5- N30.15- 57.4 61.9 44.4---
2024-05-29 06:20 pm N 19.4 27.2 5.2 5-NNW30.16- 57.4 61.9 44.8---
2024-05-29 06:10 pm N 17.5 23.3 4.6 5- N30.16- 57.4 62.1 45.1---
2024-05-29 06:00 pm N 19.4 23.3 4.9 5- N30.16-0.03 57.4 62.1 45.1---
2024-05-29 05:50 pm N 17.5 23.3 4.6 5- N30.16- 57.4 62.1 45.7---
2024-05-29 05:40 pm N 17.5 21.4 4.3 5- N30.16- 57.2 62.1 46.0---
2024-05-29 05:30 pm N 17.5 23.3 4.3 5-NNW30.16- 57.2 62.1 46.0---
2024-05-29 05:20 pm N 17.5 23.3 4.3 5- N30.16- 57.4 62.1 46.4---
2024-05-29 05:10 pm N 17.5 21.4 3.9 4-NNW30.16- 57.4 61.9 46.4---
2024-05-29 05:00 pm N 15.5 21.4 3.9 4-NNW30.16-0.03 57.2 61.9 46.8---
2024-05-29 04:50 pm N 15.5 19.4 3.6 4- N30.16- 57.0 61.9 46.6---
2024-05-29 04:40 pm N 15.5 21.4 4.3 4-NNW30.16- 56.8 61.7 47.3---
2024-05-29 04:30 pm N 15.5 19.4 3.6 4-NNW30.17- 56.5 61.5 47.7---
2024-05-29 04:20 pm N 15.5 19.4 3.3 4-NNW30.17- 55.9 61.5 48.2---
2024-05-29 04:10 pm N 13.6 17.5 3.3 4-NNW30.17- 55.4 61.5 48.9---
2024-05-29 04:00 pm N 15.5 19.4 3.3 4-NNW30.17-0.01 55.4 61.5 49.1---
2024-05-29 03:50 pm N 15.5 19.4 3.0 4-NNW30.17- 55.6 61.5 49.6---
2024-05-29 03:40 pm N 15.5 19.4 3.3 4-NNW30.18- 55.0 61.5 49.6---
2024-05-29 03:30 pm N 13.6 19.4 3.0 4-NNW30.18- 54.7 61.5 49.6---
2024-05-29 03:20 pm N 13.6 19.4 3.0 4-NNW30.18- 54.3 61.5 49.6---
2024-05-29 03:10 pm N 15.5 19.4 3.0 4-NNW30.18- 54.1 61.5 50.0---
2024-05-29 03:00 pmNNW 13.6 17.5 2.6 4- N30.19+0.01 54.1 61.5 50.0---
2024-05-29 02:50 pmNNW 13.6 17.5 2.6 4- N30.19- 54.1 61.3 50.0---
2024-05-29 02:40 pmNNW 11.7 15.5 2.6 4-NNW30.19- 54.0 61.3 50.0---
2024-05-29 02:30 pmNNW 9.7 13.6 3.0 4-NNW30.19- 53.6 61.3 49.5---
2024-05-29 02:20 pm N 9.7 13.6 2.6 3-NNW30.19- 53.4 61.3 49.5---
2024-05-29 02:10 pm N 11.7 13.6 3.0 4-NNW30.19- 53.4 61.3 49.5---
2024-05-29 02:00 pmNNW 11.7 15.5 3.0 4- N30.19+0.03 53.6 61.2 49.5---
2024-05-29 01:50 pmNNW 11.7 15.5 2.6 4- N30.19- 53.8 61.2 49.6---
2024-05-29 01:40 pmNNW 11.7 15.5 2.6 4- N30.19- 54.0 61.2 49.8---
2024-05-29 01:30 pmNNW 11.7 15.5 2.6 5-NNW30.19- 53.8 61.2 49.8---
2024-05-29 01:20 pmNNW 11.7 15.5 3.0 4- N30.19- 54.0 61.2 50.0---
2024-05-29 01:10 pmNNW 9.7 13.6 2.6 4- N30.19- 54.0 61.2 50.0---
2024-05-29 01:00 pmNNW 9.7 11.7 3.0 4-NNW30.19+0.04 53.8 61.2 49.8---
2024-05-29 12:50 pmNNW 9.7 11.7 2.6 5- N30.18- 54.0 61.2 50.0---
2024-05-29 12:40 pmNNW 9.7 13.6 3.0 4- N30.18- 53.8 61.2 50.0---
2024-05-29 12:30 pmNNW 9.7 13.6 2.6 4- N30.18- 53.6 61.2 49.8---
2024-05-29 12:20 pmNNW 11.7 13.6 2.6 4-NNW30.18- 53.4 61.2 49.6---
2024-05-29 12:10 pmNNW 11.7 13.6 2.6 4- N30.18- 53.1 61.2 49.5---
2024-05-29 12:00 pmNNW 11.7 13.6 2.6 5-NNW30.18+0.06 52.9 61.2 49.5---
2024-05-29 11:50 amNNW 9.7 13.6 3.0 5-NNW30.18- 52.7 61.2 49.3---
2024-05-29 11:40 amNNW 9.7 13.6 3.0 5-NNW30.18- 52.9 61.2 49.5---
2024-05-29 11:30 am N 9.7 13.6 3.0 5-NNW30.17- 53.1 61.2 49.6---
2024-05-29 11:20 am N 11.7 15.5 3.0 4-NNW30.17- 53.2 61.2 50.0---
2024-05-29 11:10 am N 9.7 13.6 2.6 5-NNW30.16- 53.2 61.3 50.0---
2024-05-29 11:00 am N 11.7 15.5 3.0 4-NNW30.16+0.06 53.4 61.3 50.0---
2024-05-29 10:50 am N 11.7 15.5 2.6 4-NNW30.16- 53.4 61.3 50.4---
2024-05-29 10:40 am N 11.7 15.5 3.0 4-NNW30.15- 53.1 61.3 50.0---
2024-05-29 10:30 am N 13.6 17.5 3.0 4-NNW30.15- 53.2 61.3 50.0---
2024-05-29 10:20 am N 11.7 15.5 3.0 5-NNW30.15- 53.6 61.3 49.8---
2024-05-29 10:10 am N 11.7 15.5 3.0 5-NNW30.15- 53.8 61.3 50.0---
2024-05-29 10:00 am N 13.6 17.5 3.0 4-NNW30.14+0.07 54.0 61.3 50.2---
2024-05-29 09:50 am N 13.6 17.5 3.0 4-NNW30.14- 54.0 61.3 50.2---
2024-05-29 09:40 am N 13.6 17.5 3.3 5-NNW30.13- 54.0 61.5 50.4---
2024-05-29 09:30 am N 13.6 15.5 3.0 5-NNW30.13- 54.0 61.5 50.2---
2024-05-29 09:20 am N 13.6 17.5 3.0 5-NNW30.13- 54.3 61.5 50.5---
2024-05-29 09:10 am N 13.6 15.5 3.3 5-NNW30.12- 54.9 61.5 50.9---
2024-05-29 09:00 am N 11.7 15.5 3.3 5-NNW30.12+0.06 55.0 61.5 51.3---
2024-05-29 08:50 am N 11.7 15.5 3.0 4-NNW30.11- 54.9 61.5 51.1---
2024-05-29 08:40 am N 11.7 15.5 3.3 5-NNW30.11- 55.0 61.5 51.1---
2024-05-29 08:30 am N 13.6 17.5 3.6 5-NNW30.11- 55.0 61.5 51.3---
2024-05-29 08:20 am N 13.6 17.5 3.3 5-NNW30.10- 54.9 61.5 51.3---
2024-05-29 08:10 am N 13.6 17.5 3.6 5-NNW30.10- 54.9 61.5 51.1---
2024-05-29 08:00 am N 13.6 17.5 3.6 4-NNW30.09+0.05 55.0 61.5 51.3---
2024-05-29 07:50 am N 13.6 17.5 3.3 5- NW30.09- 55.4 61.5 51.4---
2024-05-29 07:40 am N 15.5 19.4 3.3 5- NW30.09- 55.4 61.5 51.6---
2024-05-29 07:30 am N 15.5 19.4 3.3 5- NW30.08- 55.2 61.5 51.4---
2024-05-29 07:20 am N 15.5 19.4 3.0 4-NNW30.08- 55.2 61.5 51.4---
2024-05-29 07:10 am N 15.5 19.4 3.0 4- NW30.08- 55.0 61.5 51.1---
2024-05-29 07:00 am N 15.5 19.4 3.0 5- NW30.08+0.04 55.0 61.5 51.1---
2024-05-29 06:50 am N 15.5 19.4 3.0 5- NW30.07- 55.0 61.5 51.1---
2024-05-29 06:40 am N 15.5 19.4 2.6 3-NNW30.07- 55.4 61.5 51.3---
2024-05-29 06:30 am N 13.6 17.5 2.6 5- NW30.07- 55.6 61.5 51.3---
2024-05-29 06:20 am N 13.6 15.5 2.6 5- NW30.06- 55.4 61.5 50.9---
2024-05-29 06:10 am N 13.6 17.5 2.6 5- NW30.06- 55.0 61.5 50.4---
2024-05-29 06:00 am N 13.6 17.5 2.6 5- NW30.05+0.02 55.0 61.5 50.4---
2024-05-29 05:50 am N 11.7 15.5 2.6 4- NW30.05- 54.9 61.5 50.2---
2024-05-29 05:40 am N 11.7 15.5 2.6 4- NW30.05- 55.0 61.7 50.2---
2024-05-29 05:30 am N 11.7 15.5 2.6 4- NW30.05- 55.0 61.5 50.0---
2024-05-29 05:20 am N 11.7 15.5 2.6 4- NW30.05- 54.9 61.5 50.0---
2024-05-29 05:10 am N 11.7 15.5 2.3 4- NW30.05- 54.7 61.5 50.0---
2024-05-29 05:00 am N 13.6 15.5 2.3 4- NW30.04+0.02 54.7 61.5 50.2---
2024-05-29 04:50 am N 13.6 15.5 2.3 4- NW30.04- 54.9 61.7 50.4---
2024-05-29 04:40 am N 13.6 17.5 2.3 4- NW30.04- 55.0 61.7 51.1---
2024-05-29 04:30 am N 11.7 15.5 2.3 4- NW30.04- 55.0 61.7 51.4---
2024-05-29 04:20 am N 13.6 17.5 2.3 4- NW30.04- 55.0 61.7 51.4---
2024-05-29 04:10 am N 13.6 17.5 2.3 4- NW30.03- 55.2 61.7 52.0---
2024-05-29 04:00 am N 13.6 17.5 2.3 4- NW30.03+0.03 54.9 61.7 51.8---
2024-05-29 03:50 am N 13.6 17.5 2.3 4- NW30.03- 54.9 61.7 51.6---
2024-05-29 03:40 am N 15.5 19.4 2.3 4- NW30.03- 55.0 61.7 52.0---
2024-05-29 03:30 am N 13.6 17.5 2.0 4- NW30.03- 55.6 61.7 52.3---
2024-05-29 03:20 am N 13.6 15.5 2.0 4- NW30.03- 55.6 61.7 52.3---
2024-05-29 03:10 am N 11.7 13.6 2.0 3- NW30.03- 55.4 61.7 52.2---
2024-05-29 03:00 am N 9.7 13.6 2.0 3- NW30.03+0.04 55.0 61.7 52.0---
2024-05-29 02:50 am N 9.7 11.7 2.0 3- NW30.03- 54.5 61.7 51.3---
2024-05-29 02:40 am N 11.7 15.5 2.0 3- NW30.03- 54.3 61.7 50.7---
2024-05-29 02:30 am N 11.7 15.5 2.0 3- NW30.03- 54.5 61.5 50.7---
2024-05-29 02:20 am N 11.7 13.6 2.3 3-NNW30.02- 54.7 61.5 50.5---
2024-05-29 02:10 am N 11.7 13.6 2.3 3- NW30.02- 54.7 61.7 50.2---
2024-05-29 02:00 am N 11.7 15.5 2.0 3- NW30.02+0.01 54.5 61.7 50.0---
2024-05-29 01:50 am N 11.7 13.6 2.3 3-NNW30.02- 54.7 61.7 49.8---

Detailed Wave Summary
for 45168 as of (1:30 am EDT)
0530 GMT on 05/30/2024:

These wave data are displayed in rounded times.

     

Click on the graph icon in the table below to see a time series plot of the last five days of that observation.

5-day plot - Significant Wave Height Significant Wave Height (WVHT): 3.3 ft
5-day plot - Wave Steepness Wave Steepness (STEEPNESS): STEEP
Previous observations
TIME
(EDT)
5-day plot - Wave Height
WVHT
ft
5-day plot - Swell Height
SwH
ft
5-day plot - Swell Period
SwP
sec
5-day plot - Swell Direction
SwD
 
5-day plot - Wind Wave Height
WWH
ft
5-day plot - Wind Wave Period
WWP
sec
5-day plot - Wind Wave Direction
WWD
 
5-day plot - Wave Steepness
STEEPNESS
 
5-day plot - Average Wave Period
APD
sec
2024-05-30 01:20 am 2.6------ STEEP-
2024-05-30 01:10 am 2.6------ STEEP-
2024-05-30 01:00 am 3.3------ STEEP-
2024-05-30 12:50 am 3.0------VERY_STEEP-
2024-05-30 12:40 am 3.0------ STEEP-
2024-05-30 12:30 am 3.3------ STEEP-
2024-05-30 12:20 am 3.3------ STEEP-
2024-05-30 12:10 am 3.3------ STEEP-
2024-05-30 12:00 am 3.3------VERY_STEEP-
2024-05-29 11:50 pm 3.3------ STEEP-
2024-05-29 11:40 pm 3.3------ STEEP-
2024-05-29 11:30 pm 3.3------VERY_STEEP-
2024-05-29 11:20 pm 3.6------VERY_STEEP-
2024-05-29 11:10 pm 3.0------VERY_STEEP-
2024-05-29 11:00 pm 3.3------ STEEP-
2024-05-29 10:50 pm 3.9------VERY_STEEP-
2024-05-29 10:40 pm 3.9------ STEEP-
2024-05-29 10:30 pm 3.6------ STEEP-
2024-05-29 10:20 pm 3.6------ STEEP-
2024-05-29 10:10 pm 3.9------VERY_STEEP-
2024-05-29 10:00 pm 4.3------ STEEP-
2024-05-29 09:50 pm 4.3------ STEEP-
2024-05-29 09:40 pm 3.9------VERY_STEEP-
2024-05-29 09:30 pm 4.6------VERY_STEEP-
2024-05-29 09:20 pm 4.3------ STEEP-
2024-05-29 09:10 pm 4.3------VERY_STEEP-
2024-05-29 09:00 pm 4.6------ STEEP-
2024-05-29 08:50 pm 4.3------VERY_STEEP-
2024-05-29 08:40 pm 5.2------VERY_STEEP-
2024-05-29 08:30 pm 4.6------VERY_STEEP-
2024-05-29 08:20 pm 4.9------VERY_STEEP-
2024-05-29 08:10 pm 4.9------VERY_STEEP-
2024-05-29 08:00 pm 4.9------VERY_STEEP-
2024-05-29 07:50 pm 5.2------VERY_STEEP-
2024-05-29 07:40 pm 4.9------VERY_STEEP-
2024-05-29 07:30 pm 4.9------VERY_STEEP-
2024-05-29 07:20 pm 5.6------VERY_STEEP-
2024-05-29 07:10 pm 5.2------VERY_STEEP-
2024-05-29 07:00 pm 5.9------VERY_STEEP-
2024-05-29 06:50 pm 5.2------VERY_STEEP-
2024-05-29 06:40 pm 4.9------VERY_STEEP-
2024-05-29 06:30 pm 5.2------VERY_STEEP-
2024-05-29 06:20 pm 5.2------VERY_STEEP-
2024-05-29 06:10 pm 4.6------VERY_STEEP-
2024-05-29 06:00 pm 4.9------VERY_STEEP-
2024-05-29 05:50 pm 4.6------VERY_STEEP-
2024-05-29 05:40 pm 4.3------VERY_STEEP-
2024-05-29 05:30 pm 4.3------VERY_STEEP-
2024-05-29 05:20 pm 4.3------VERY_STEEP-
2024-05-29 05:10 pm 3.9------VERY_STEEP-
2024-05-29 05:00 pm 3.9------VERY_STEEP-
2024-05-29 04:50 pm 3.6------VERY_STEEP-
2024-05-29 04:40 pm 4.3------VERY_STEEP-
2024-05-29 04:30 pm 3.6------VERY_STEEP-
2024-05-29 04:20 pm 3.3------VERY_STEEP-
2024-05-29 04:10 pm 3.3------VERY_STEEP-
2024-05-29 04:00 pm 3.3------VERY_STEEP-
2024-05-29 03:50 pm 3.0------VERY_STEEP-
2024-05-29 03:40 pm 3.3------VERY_STEEP-
2024-05-29 03:30 pm 3.0------VERY_STEEP-
2024-05-29 03:20 pm 3.0------VERY_STEEP-
2024-05-29 03:10 pm 3.0------VERY_STEEP-
2024-05-29 03:00 pm 2.6------VERY_STEEP-
2024-05-29 02:50 pm 2.6------VERY_STEEP-
2024-05-29 02:40 pm 2.6------VERY_STEEP-
2024-05-29 02:30 pm 3.0------VERY_STEEP-
2024-05-29 02:20 pm 2.6------VERY_STEEP-
2024-05-29 02:10 pm 3.0------VERY_STEEP-
2024-05-29 02:00 pm 3.0------VERY_STEEP-
2024-05-29 01:50 pm 2.6------VERY_STEEP-
2024-05-29 01:40 pm 2.6------VERY_STEEP-
2024-05-29 01:30 pm 2.6------VERY_STEEP-
2024-05-29 01:20 pm 3.0------VERY_STEEP-
2024-05-29 01:10 pm 2.6------ N/A-
2024-05-29 01:00 pm 3.0------VERY_STEEP-
2024-05-29 12:50 pm 2.6------ N/A-
2024-05-29 12:40 pm 3.0------VERY_STEEP-
2024-05-29 12:30 pm 2.6------VERY_STEEP-
2024-05-29 12:20 pm 2.6------VERY_STEEP-
2024-05-29 12:10 pm 2.6------VERY_STEEP-
2024-05-29 12:00 pm 2.6------VERY_STEEP-
2024-05-29 11:50 am 3.0------VERY_STEEP-
2024-05-29 11:40 am 3.0------VERY_STEEP-
2024-05-29 11:30 am 3.0------VERY_STEEP-
2024-05-29 11:20 am 3.0------VERY_STEEP-
2024-05-29 11:10 am 2.6------VERY_STEEP-
2024-05-29 11:00 am 3.0------VERY_STEEP-
2024-05-29 10:50 am 2.6------VERY_STEEP-
2024-05-29 10:40 am 3.0------VERY_STEEP-
2024-05-29 10:30 am 3.0------VERY_STEEP-
2024-05-29 10:20 am 3.0------VERY_STEEP-
2024-05-29 10:10 am 3.0------VERY_STEEP-
2024-05-29 10:00 am 3.0------VERY_STEEP-
2024-05-29 09:50 am 3.0------VERY_STEEP-
2024-05-29 09:40 am 3.3------VERY_STEEP-
2024-05-29 09:30 am 3.0------VERY_STEEP-
2024-05-29 09:20 am 3.0------VERY_STEEP-
2024-05-29 09:10 am 3.3------VERY_STEEP-
2024-05-29 09:00 am 3.3------VERY_STEEP-
2024-05-29 08:50 am 3.0------VERY_STEEP-
2024-05-29 08:40 am 3.3------VERY_STEEP-
2024-05-29 08:30 am 3.6------VERY_STEEP-
2024-05-29 08:20 am 3.3------VERY_STEEP-
2024-05-29 08:10 am 3.6------VERY_STEEP-
2024-05-29 08:00 am 3.6------VERY_STEEP-
2024-05-29 07:50 am 3.3------VERY_STEEP-
2024-05-29 07:40 am 3.3------VERY_STEEP-
2024-05-29 07:30 am 3.3------VERY_STEEP-
2024-05-29 07:20 am 3.0------VERY_STEEP-
2024-05-29 07:10 am 3.0------VERY_STEEP-
2024-05-29 07:00 am 3.0------ STEEP-
2024-05-29 06:50 am 3.0------VERY_STEEP-
2024-05-29 06:40 am 2.6------VERY_STEEP-
2024-05-29 06:30 am 2.6------VERY_STEEP-
2024-05-29 06:20 am 2.6------ STEEP-
2024-05-29 06:10 am 2.6------VERY_STEEP-
2024-05-29 06:00 am 2.6------ N/A-
2024-05-29 05:50 am 2.6------ N/A-
2024-05-29 05:40 am 2.6------ N/A-
2024-05-29 05:30 am 2.6------ N/A-
2024-05-29 05:20 am 2.6------ N/A-
2024-05-29 05:10 am 2.3------ N/A-
2024-05-29 05:00 am 2.3------ N/A-
2024-05-29 04:50 am 2.3------ N/A-
2024-05-29 04:40 am 2.3------ N/A-
2024-05-29 04:30 am 2.3------ N/A-
2024-05-29 04:20 am 2.3------ N/A-
2024-05-29 04:10 am 2.3------ N/A-
2024-05-29 04:00 am 2.3------ N/A-
2024-05-29 03:50 am 2.3------ N/A-
2024-05-29 03:40 am 2.3------ N/A-
2024-05-29 03:30 am 2.0------ N/A-
2024-05-29 03:20 am 2.0------ N/A-
2024-05-29 03:10 am 2.0------ N/A-
2024-05-29 03:00 am 2.0------ N/A-
2024-05-29 02:50 am 2.0------ N/A-
2024-05-29 02:40 am 2.0------ N/A-
2024-05-29 02:30 am 2.0------ N/A-
2024-05-29 02:20 am 2.3------ N/A-
2024-05-29 02:10 am 2.3------ N/A-
2024-05-29 02:00 am 2.0------ N/A-
2024-05-29 01:50 am 2.3------ N/A-

Ocean Conditions at 45168 as of
(1:30 am EDT)
0530 GMT on 05/30/2024:

These oceanographic data are displayed in rounded times.

     

Click on the graph icon in the table below to see a time series plot of the last five days of that observation.

Depth (DEPTH): 3.3 ft
5-day plot - Ocean Temperature Ocean Temperature (OTMP):59.07 °F
Previous observations
TIME
(EDT)
DEPTH
ft
5-day plot - Ocean Temperature
OTMP
°F
5-day plot - Conductivity
COND
mS/cm
5-day plot - Salinity
SAL
psu
5-day plot - Oxygen Concentration
O2%
%
5-day plot - Oxygen Concentration
O2PPM
ppm
5-day plot - Chlorophyll
CLCON
ug/l
5-day plot - Turbidity
TURB
FTU
5-day plot - pH
PH
 
5-day plot - Eh
EH
mv
2024-05-30 01:20 am 3.359.18--------
2024-05-30 01:10 am 3.359.36--------
2024-05-30 01:00 am 3.359.43--------
2024-05-30 12:50 am 3.359.52--------
2024-05-30 12:40 am 3.359.54--------
2024-05-30 12:30 am 3.359.74--------
2024-05-30 12:20 am 3.359.85--------
2024-05-30 12:10 am 3.359.88--------
2024-05-30 12:00 am 3.360.01--------
2024-05-29 11:50 pm 3.360.17--------
2024-05-29 11:40 pm 3.360.30--------
2024-05-29 11:30 pm 3.360.39--------
2024-05-29 11:20 pm 3.360.42--------
2024-05-29 11:10 pm 3.360.51--------
2024-05-29 11:00 pm 3.360.51--------
2024-05-29 10:50 pm 3.360.57--------
2024-05-29 10:40 pm 3.360.60--------
2024-05-29 10:30 pm 3.360.71--------
2024-05-29 10:20 pm 3.360.80--------
2024-05-29 10:10 pm 3.360.84--------
2024-05-29 10:00 pm 3.360.85--------
2024-05-29 09:50 pm 3.360.91--------
2024-05-29 09:40 pm 3.360.94--------
2024-05-29 09:30 pm 3.361.03--------
2024-05-29 09:20 pm 3.361.18--------
2024-05-29 09:10 pm 3.361.34--------
2024-05-29 09:00 pm 3.361.43--------
2024-05-29 08:50 pm 3.361.54--------
2024-05-29 08:40 pm 3.361.59--------
2024-05-29 08:30 pm 3.361.63--------
2024-05-29 08:20 pm 3.361.61--------
2024-05-29 08:10 pm 3.361.65--------
2024-05-29 08:00 pm 3.361.72--------
2024-05-29 07:50 pm 3.361.86--------
2024-05-29 07:40 pm 3.361.92--------
2024-05-29 07:30 pm 3.362.02--------
2024-05-29 07:20 pm 3.362.08--------
2024-05-29 07:10 pm 3.362.11--------
2024-05-29 07:00 pm 3.362.08--------
2024-05-29 06:50 pm 3.361.97--------
2024-05-29 06:40 pm 3.361.88--------
2024-05-29 06:30 pm 3.361.92--------
2024-05-29 06:20 pm 3.361.86--------
2024-05-29 06:10 pm 3.361.99--------
2024-05-29 06:00 pm 3.362.04--------
2024-05-29 05:50 pm 3.362.04--------
2024-05-29 05:40 pm 3.362.02--------
2024-05-29 05:30 pm 3.362.02--------
2024-05-29 05:20 pm 3.361.99--------
2024-05-29 05:10 pm 3.361.93--------
2024-05-29 05:00 pm 3.361.92--------
2024-05-29 04:50 pm 3.361.86--------
2024-05-29 04:40 pm 3.361.75--------
2024-05-29 04:30 pm 3.361.57--------
2024-05-29 04:20 pm 3.361.57--------
2024-05-29 04:10 pm 3.361.57--------
2024-05-29 04:00 pm 3.361.56--------
2024-05-29 03:50 pm 3.361.56--------
2024-05-29 03:40 pm 3.361.54--------
2024-05-29 03:30 pm 3.361.50--------
2024-05-29 03:20 pm 3.361.47--------
2024-05-29 03:10 pm 3.361.43--------
2024-05-29 03:00 pm 3.361.45--------
2024-05-29 02:50 pm 3.361.39--------
2024-05-29 02:40 pm 3.361.34--------
2024-05-29 02:30 pm 3.361.32--------
2024-05-29 02:20 pm 3.361.30--------
2024-05-29 02:10 pm 3.361.27--------
2024-05-29 02:00 pm 3.361.23--------
2024-05-29 01:50 pm 3.361.23--------
2024-05-29 01:40 pm 3.361.21--------
2024-05-29 01:30 pm 3.361.21--------
2024-05-29 01:20 pm 3.361.20--------
2024-05-29 01:10 pm 3.361.18--------
2024-05-29 01:00 pm 3.361.14--------
2024-05-29 12:50 pm 3.361.14--------
2024-05-29 12:40 pm 3.361.11--------
2024-05-29 12:30 pm 3.361.11--------
2024-05-29 12:20 pm 3.361.12--------
2024-05-29 12:10 pm 3.361.11--------
2024-05-29 12:00 pm 3.361.14--------
2024-05-29 11:50 am 3.361.16--------
2024-05-29 11:40 am 3.361.20--------
2024-05-29 11:30 am 3.361.23--------
2024-05-29 11:20 am 3.361.25--------
2024-05-29 11:10 am 3.361.27--------
2024-05-29 11:00 am 3.361.30--------
2024-05-29 10:50 am 3.361.34--------
2024-05-29 10:40 am 3.361.36--------
2024-05-29 10:30 am 3.361.36--------
2024-05-29 10:20 am 3.361.38--------
2024-05-29 10:10 am 3.361.39--------
2024-05-29 10:00 am 3.361.41--------
2024-05-29 09:50 am 3.361.43--------
2024-05-29 09:40 am 3.361.43--------
2024-05-29 09:30 am 3.361.45--------
2024-05-29 09:20 am 3.361.47--------
2024-05-29 09:10 am 3.361.48--------
2024-05-29 09:00 am 3.361.50--------
2024-05-29 08:50 am 3.361.48--------
2024-05-29 08:40 am 3.361.52--------
2024-05-29 08:30 am 3.361.52--------
2024-05-29 08:20 am 3.361.50--------
2024-05-29 08:10 am 3.361.50--------
2024-05-29 08:00 am 3.361.54--------
2024-05-29 07:50 am 3.361.54--------
2024-05-29 07:40 am 3.361.56--------
2024-05-29 07:30 am 3.361.52--------
2024-05-29 07:20 am 3.361.56--------
2024-05-29 07:10 am 3.361.56--------
2024-05-29 07:00 am 3.361.56--------
2024-05-29 06:50 am 3.361.56--------
2024-05-29 06:40 am 3.361.57--------
2024-05-29 06:30 am 3.361.57--------
2024-05-29 06:20 am 3.361.56--------
2024-05-29 06:10 am 3.361.59--------
2024-05-29 06:00 am 3.361.61--------
2024-05-29 05:50 am 3.361.61--------
2024-05-29 05:40 am 3.361.61--------
2024-05-29 05:30 am 3.361.61--------
2024-05-29 05:20 am 3.361.61--------
2024-05-29 05:10 am 3.361.59--------
2024-05-29 05:00 am 3.361.61--------
2024-05-29 04:50 am 3.361.65--------
2024-05-29 04:40 am 3.361.65--------
2024-05-29 04:30 am 3.361.65--------
2024-05-29 04:20 am 3.361.66--------
2024-05-29 04:10 am 3.361.66--------
2024-05-29 04:00 am 3.361.68--------
2024-05-29 03:50 am 3.361.68--------
2024-05-29 03:40 am 3.361.68--------
2024-05-29 03:30 am 3.361.70--------
2024-05-29 03:20 am 3.361.68--------
2024-05-29 03:10 am 3.361.66--------
2024-05-29 03:00 am 3.361.65--------
2024-05-29 02:50 am 3.361.61--------
2024-05-29 02:40 am 3.361.63--------
2024-05-29 02:30 am 3.361.59--------
2024-05-29 02:20 am 3.361.61--------
2024-05-29 02:10 am 3.361.63--------
2024-05-29 02:00 am 3.361.66--------
2024-05-29 01:50 am 3.361.68--------